User: anonymous
Location: Unspecified
(0.0000°N, 0.0000°E)
Time: 14:45:36
(UTC+00:00)
Language:

OPTUS 1C - Orbit

View from above orbital plane
View from above orbital plane
View from above satellite
View from above satellite

Ground track
Ground track

The orbit data is extracted from the following two-line orbital elements,

1 27831U 03028B   14201.62497039 -.00000166  00000-0  10000-3 0  1554
2 27831 000.0323 135.3538 0004398 354.1640 189.7843 01.00272133 40706
Epoch (UTC): 20 July 2014 14:59:57
Eccentricity: 0.0004398
inclination: 0.0323°
perigee height: 35767 km
apogee height: 35804 km
right ascension of ascending node: 135.3538°
argument of perigee: 354.1640°
revolutions per day: 1.00272133
mean anomaly at epoch: 189.7843°
orbit number at epoch: 4070

The dashed part of the orbit path shows where the satellite is in the earth's shadow,  

DLR